Home > Weather > Malabo > Past weeks

Flag for Equatorial Guinea Weather for the Past 2 Weeks in Malabo, Equatorial Guinea

Now
81 °F

Haze.


Feels Like: 81 °F
Forecast: 75 / 86 °F
Wind: 7 mph from Southwest

Location: Malabo/Fernando Poo

Current Time: Feb 10, 2016 at 12:35:48 AM

Latest Report: Feb 9, 2016 at 11:00 PM


Visibility: 2 mi

Pressure: 29.92 "Hg

Humidity: 51%

Dew point: 61 °F

Location of MalaboLocation

Historic Weather in Malabo — Graph

°F

Malabo Temperature Yesterday

Maximum temperature yesterday: 88 °F (at 1:00 PM)
Minimum temperature yesterday: 73 °F (at 6:00 AM)
Average temperature yesterday: 82 °F

High & Low Weather Summary for the Past Weeks

 TemperatureHumidityPressure
High91 °F (Jan 27, 3:00 PM)94% (Jan 26, 1:00 AM)30.01 "Hg (Jan 26, 1:00 AM)
Low70 °F (Jan 30, 7:00 AM)43% (Jan 31, 11:00 AM)29.77 "Hg (Feb 2, 3:00 PM)
Average81 °F75%29.90 "Hg
* Reported Jan 25 11:00 PM — Feb 9 11:00 PM, Malabo, Weather by CustomWeather, © 2016

Note: Actual official high and low records may vary slightly from our data, if they occured in-between our weather recording intervals... More about our weather records

Advertising

Malabo Weather History for the Previous 24 Hours

 ConditionsComfort  
Time TempWeatherWind HumidityBarometerVisibility
11:00 PM
Tue, Feb 9
81 °FHaze.7 mph51%29.92 "Hg2 mi
10:00 PM81 °FHaze.5 mph62%29.92 "Hg3 mi
9:00 PM81 °FFog.7 mph74%29.92 "Hg3 mi
8:00 PM81 °FFog.7 mph74%29.89 "Hg2 mi
7:00 PM81 °FFog.6 mph79%29.86 "Hg2 mi
6:00 PM84 °FHaze.8 mph70%29.86 "Hg2 mi
5:00 PM86 °FHaze.8 mph70%29.86 "Hg3 mi
4:00 PM88 °FHaze.9 mph66%29.86 "Hg3 mi
3:00 PM88 °FHaze.8 mph66%29.86 "Hg2 mi
2:00 PM86 °FPartly sunny.12 mph66%29.89 "Hg3 mi
1:00 PM88 °FPartly sunny.12 mph66%29.92 "Hg3 mi
12:00 PM86 °FFog.10 mph75%29.95 "Hg3 mi
11:00 AM86 °FFog.7 mph70%29.98 "Hg3 mi
10:00 AM86 °FFog.6 mph75%29.98 "Hg3 mi
9:00 AM81 °FFog.2 mph79%29.98 "Hg3 mi
8:00 AM77 °FFog.1 mph89%29.95 "Hg3 mi
7:00 AM75 °FPassing clouds.6 mph89%29.92 "Hg3 mi
6:00 AM73 °FPassing clouds.3 mph89%29.92 "Hg5 mi
5:00 AM77 °FPassing clouds.6 mph83%29.92 "Hg5 mi
4:00 AM77 °FPassing clouds.5 mph79%29.92 "Hg5 mi
3:00 AM77 °FPassing clouds.9 mph79%29.92 "Hg5 mi
1:00 AM79 °FPassing clouds.8 mph70%29.95 "Hg5 mi
12:00 AM79 °FPassing clouds.7 mph74%29.98 "Hg5 mi
Weather by CustomWeather, © 2016

See weather overviewHow to use our weather pages